Tracking 31027 objects as of 19-Jul-2025
HD Live streaming from Space Station
objects crossing your sky now

YAOGAN-30 X

Track YAOGAN-30 X now!
10-day predictions


NORAD ID: 48423
Int'l Code: 2021-039A
Perigee: 571.2 km
Apogee: 575.9 km
Inclination: 35.0 °
Period: 96.0 minutes
Semi major axis: 6944 km
RCS: Unknown
Launch date: May 6, 2021
Source: People's Republic of China (PRC)
Launch site: Xichang Space Center, China (XSC)
Your satellite tracking list
STARLINK-30103
Track 1 satellite(s)




NASA's NSSDC Master Catalog

Two Line Element Set (TLE):
1 48423U 21039A   25199.84646604  .00002064  00000-0  16423-3 0  9991
2 48423  34.9973 259.6609 0003428  19.2187 340.8649 15.00162925229424
Source of the keplerian elements: AFSPC